Regional Weather Roundup
Issued by NWS

Home | Current Version | Previous Version | Text Only | Print | Product List | Glossary On
Versions: 1 2 3 4 5 6 7 8 9 10 11 12 13 14 15 16 17 18 19 20 21 22 23 24 25 26 27 28 29 30 31 32 33 34 35 36 37 38 39 40 41 42 43 44 45 46 47 48 49 50
000
ASUS44 KFWD 222203
RWRTX
NORTH TEXAS HOURLY WEATHER ROUNDUP
NATIONAL WEATHER SERVICE FORT WORTH TX
500 PM CDT TUE JUL 22 2014

NOTE: "FAIR" INDICATES FEW OR NO CLOUDS BELOW 12,000 FEET WITH NO
SIGNIFICANT WEATHER AND/OR OBSTRUCTIONS TO VISIBILITY.

TXZ118-119-222300-
DALLAS/FORT WORTH METROPLEX

CITY           SKY/WX    TMP DP  RH WIND       PRES   REMARKS
DFW AIRPORT    PTSUNNY   96  67  38 NE7       30.02F HX 100
DALLAS LOVE    PTSUNNY   95  68  41 E8        30.02F HX  99
FTW MEACHAM    MOSUNNY   96  67  38 E7        30.01F HX 100
DAL-EXECUTIVE  SUNNY     98  69  38 NE8       30.02F HX 104
FTW-ALLIANCE   MOSUNNY   95  70  44 NE5       30.02F HX 101
FTW-NAS-JRB    PTSUNNY   99  66  33 NE7       30.05F HX 103
FTW-SPINKS     MOSUNNY   97  64  34 NE6       30.04S HX  99
ARLINGTON      MOSUNNY   96  67  38 VRB3      30.02F HX 100
GRAND PRAIRIE  SUNNY     95  66  38 NE10      30.03F HX  98
ADDISON        MOSUNNY   93  66  40 E7        30.03F HX  96
MESQUITE       MOSUNNY   93  88  84 E6        30.03R HX 130
LANCASTER      MOSUNNY   95  68  41 E8        30.03S HX  99
$$

TXZ091>094-102>105-117-120-121-131>134-222300-
NORTH CENTRAL TEXAS

CITY           SKY/WX    TMP DP  RH WIND       PRES   REMARKS
SHRMAN/DENISON MOSUNNY   94  69  44 E3        30.06R HX  98
GAINESVILLE    MOSUNNY   93  72  49 E8        30.06S HX 101
BOWIE          MOSUNNY   94  71  48 CALM      30.05F HX 100
BRIDGEPORT     MOSUNNY   95  66  39 SE9       30.06S HX  98
DECATUR        SUNNY     93  66  41 E6        30.06S HX  96
DENTON         PTSUNNY   93  71  48 E5        30.03F HX 100
MCKINNEY       MOSUNNY   92  70  48 E9        30.03F HX  97
GREENVILLE     MOSUNNY   90  64  43 NE5       30.05S HX  91
ROCKWALL       MOSUNNY   92  71  49 E6        30.03S HX  99
TERRELL        MOSUNNY   94  68  42 NE8       30.04S HX  98
WAXAHACHIE     MOSUNNY   94  66  39 E6        30.03S HX  96
CLEBURNE       SUNNY     97  68  38 VRB8      30.04F HX 101
GRANBURY       SUNNY     98  65  33 S6        30.03F HX 101
$$

TXZ083>090-098>101-113>116-127>130-139>142-154-155-222300-
WESTERN NORTH TEXAS

CITY           SKY/WX    TMP DP  RH WIND       PRES   REMARKS
WICHITA FALLS  MOSUNNY   95  70  44 SE8       30.03F HX 101
WF-KICKAPOO    SUNNY     96  66  37 SE9       30.05S HX  99
VERNON         MOSUNNY   99  63  30 SE7       30.05F HX 100
ABILENE        SUNNY     97  66  36 E5        30.06F HX 100
ABILENE-DYESS  SUNNY     96  67  39 SE9       30.05F HX 100
BRECKENRIDGE   SUNNY    101  58  23 E7        30.02F HX 101
MINERAL WELLS  SUNNY     97  66  36 E9        30.02F HX 100
STEPHENVILLE   MOSUNNY   94  66  40 E7        30.08S HX  97
COMANCHE       MOSUNNY   95  65  36 E6        30.06S HX  98
BROWNWOOD      LGT RAIN  95  68  41 E8        30.05F HX  99
COLEMAN        SUNNY     94  63  35 E6        30.06F HX  95
BRADY          SUNNY     95  64  36 E7        30.07S HX  97
$$

TXZ143>147-156>162-174-175-222300-
CENTRAL TEXAS

CITY           SKY/WX    TMP DP  RH WIND       PRES   REMARKS
WACO           SUNNY     96  68  39 VRB6      30.00F HX 101
WACO-TSTC      PTSUNNY   97  70  41 E5        30.00F HX 103
WACO-MCGREGOR  SUNNY     97  70  41 SE7       30.01F HX 103
HILLSBORO      MOSUNNY   96  65  36 N3        30.01F HX  98
CORSICANA      MOSUNNY   94  70  45 E7        30.03F HX 100
MEXIA          MOSUNNY   91  73  56 E5        30.01F HX  99
HEARNE         MOSUNNY   98  75  48 S3        30.01S HX 111
CAMERON        MOSUNNY   94  73  49 SE5       30.01S HX 103
TEMPLE         MOSUNNY   93  66  40 E5        30.02F HX  96
KILLEEN        MOSUNNY   93  66  40 VRB6      30.03F HX  96
KILLEEN-SKYLRK SUNNY     97  66  36 E9        30.02S HX 100
FORT HOOD      PTSUNNY   99  67  35 E6        30.02F HX 103
GATESVILLE     SUNNY     97  64  34 NE5       30.04F HAZE    HX  99
HAMILTON       PTSUNNY   94  68  41 NE6       30.05F HX  98
LAMPASAS       MOSUNNY   96  70  42 SE9       30.03F HX 102
$$

TXZ095>097-106>112-122>126-135>138-148>153-164>167-222300-
EAST TEXAS

CITY           SKY/WX    TMP DP  RH WIND       PRES   REMARKS
PARIS          MOSUNNY   90  70  51 NE7       30.06F HX  95
SULPHUR SPRNGS MOSUNNY   91  70  50 E8        30.07S HX  96
CLARKSVILLE    PTSUNNY   91  68  47 E3        30.05F HX  95
MOUNT PLEASANT PTSUNNY   89  66  46 E7        30.06F HX  92
GILMER         SUNNY     90  66  45 E3        30.07S HX  92
MINEOLA        MOSUNNY   90  72  55 SE5       30.05S HX  96
TYLER          MOSUNNY   91  69  48 E5        30.04S HX  96
LONGVIEW       MOSUNNY   90  68  48 NE8       30.04F HX  94
MARSHALL       PTSUNNY   89  71  54 E5        30.06F HX  94
ATHENS         SUNNY     90  70  51 SE6       30.02F HX  95
JACKSONVILLE   SUNNY     90  70  51 NE7       30.07S HX  95
HENDERSON      MOSUNNY   91  66  44 E7        30.05F HX  93
NACOGDOCHES    MOSUNNY   90  70  51 E6        30.03F HX  95
LUFKIN         SUNNY     94  73  50 NE7       30.02F HX 103
$$

SUPPLEMENTAL OBSERVATIONS (CENTRAL)

CITY           SKY/WX    TMP DP  RH WIND       PRES   REMARKS
$$

SUPPLEMENTAL OBSERVATIONS (WEST)

CITY           SKY/WX    TMP DP  RH WIND       PRES   REMARKS
$$

SUPPLEMENTAL OBSERVATIONS (EAST)

CITY           SKY/WX    TMP DP  RH WIND       PRES   REMARKS
$$

SUPPLEMENTAL OBSERVATIONS ARE A COLLECTION OF AUTOMATED INSTRUMENTS
THAT ARE MAINTAINED BY A VARIETY OF FEDERAL AND STATE AGENCIES.
CERTAIN ELEMENTS...SUCH AS HUMIDITY VALUES AND SUSTAINED WIND
SPEEDS...MAY BE APPROXIMATED.




USA.gov is the U.S. government's official web portal to all federal, state and local government web resources and services.